Location: ???????
(55.5917°N, 37.3214°E)
Time: 17:20:25
(UTC+00:00)

Abrixas rocket - Pass Details

Date: 14 July 2020
Orbit: 339 x 347 km, 48.4° (Epoch: 07 August)

Event Time Altitude Azimuth Distance (km) Brightness Sun altitude
Exits shadow 00:03:04 - 245° (WSW) 1,540 4.6 -6.7°
Reaches altitude 10° 00:03:59 10° 232° (SW) 1,284 4.1 -6.7°
Maximum altitude 00:05:37 14° 198° (SSW) 1,074 3.7 -6.5°
Drops below altitude 10° 00:07:14 10° 163° (SSE) 1,281 4.4 -6.4°
Sets 00:09:51 0° 137° (SE) 2,117 5.7 -6.2°
